Radiation Dose at Monitoring Post of Fukushima Daini Nuclear Power Station
Date,Time,MP-1(microSv/h),MP-2(microSv/h),MP-3(microSv/h),MP-4(microSv/h),MP-5(microSv/h),MP-6(microSv/h),MP-7(microSv/h),Wind Direction,Wind Velocity(m/s),Rain
2017/06/02,00:00,0.360,0.216,0.368,0.340,0.317,0.179,0.116,-,CALM,No
2017/06/02,00:10,0.357,0.217,0.367,0.343,0.316,0.180,0.117,-,CALM,No
2017/06/02,00:20,0.359,0.216,0.368,0.342,0.317,0.180,0.116,north-northeast,0.6,No
2017/06/02,00:30,0.359,0.218,0.367,0.341,0.316,0.179,0.117,north-northwest,2.1,No
2017/06/02,00:40,0.359,0.217,0.371,0.341,0.318,0.180,0.116,north,2.1,No
2017/06/02,00:50,0.358,0.217,0.367,0.340,0.316,0.181,0.117,north-northwest,1.4,No
2017/06/02,01:00,0.358,0.217,0.370,0.342,0.319,0.181,0.117,north,1.1,No
2017/06/02,01:10,0.358,0.216,0.368,0.341,0.316,0.180,0.117,-,CALM,No
2017/06/02,01:20,0.359,0.218,0.370,0.343,0.319,0.180,0.117,east,0.6,No
2017/06/02,01:30,0.360,0.218,0.367,0.340,0.317,0.180,0.117,southeast,0.5,No
2017/06/02,01:40,0.358,0.217,0.369,0.341,0.319,0.181,0.117,southwest,0.7,No
2017/06/02,01:50,0.361,0.216,0.368,0.340,0.315,0.180,0.117,south,1.0,No
2017/06/02,02:00,0.357,0.217,0.370,0.344,0.319,0.180,0.117,south-southwest,1.0,No
2017/06/02,02:10,0.361,0.217,0.367,0.341,0.315,0.179,0.118,south-southwest,1.1,No
2017/06/02,02:20,0.358,0.217,0.370,0.343,0.318,0.181,0.117,south-southwest,1.5,No
2017/06/02,02:30,0.360,0.217,0.367,0.339,0.316,0.181,0.117,southwest,0.8,No
2017/06/02,02:40,0.358,0.217,0.370,0.344,0.318,0.180,0.117,south-southwest,0.6,No
2017/06/02,02:50,0.361,0.216,0.367,0.340,0.316,0.180,0.117,southwest,0.8,No
2017/06/02,03:00,0.359,0.217,0.370,0.344,0.319,0.181,0.118,south,1.5,No
2017/06/02,03:10,0.361,0.217,0.367,0.341,0.317,0.180,0.117,south,1.5,No
2017/06/02,03:20,0.359,0.218,0.369,0.343,0.319,0.180,0.117,-,CALM,No
2017/06/02,03:30,0.360,0.217,0.368,0.341,0.316,0.180,0.117,south,3.1,No
2017/06/02,03:40,0.358,0.216,0.370,0.343,0.318,0.180,0.116,south,3.6,No
2017/06/02,03:50,0.361,0.217,0.368,0.342,0.317,0.180,0.117,south,3.5,No
2017/06/02,04:00,0.358,0.218,0.370,0.344,0.318,0.181,0.117,south,3.7,No
2017/06/02,04:10,0.362,0.216,0.368,0.340,0.317,0.180,0.118,south-southwest,3.9,No
2017/06/02,04:20,0.357,0.218,0.370,0.342,0.318,0.181,0.117,south,3.2,No
2017/06/02,04:30,0.360,0.217,0.369,0.342,0.317,0.180,0.117,south-southwest,4.1,No
2017/06/02,04:40,0.358,0.217,0.370,0.343,0.317,0.180,0.116,south,4.2,No
2017/06/02,04:50,0.360,0.218,0.367,0.341,0.319,0.180,0.117,south,3.4,No
2017/06/02,05:00,0.356,0.216,0.370,0.341,0.316,0.181,0.116,south-southwest,4.5,No
2017/06/02,05:10,0.361,0.217,0.368,0.341,0.319,0.181,0.116,south,5.2,No
2017/06/02,05:20,0.359,0.217,0.368,0.342,0.315,0.180,0.117,south,5.1,Yes
2017/06/02,05:30,0.360,0.218,0.368,0.343,0.319,0.181,0.118,south,3.2,Yes
2017/06/02,05:40,0.360,0.220,0.370,0.344,0.317,0.182,0.119,south-southeast,3.4,Yes
2017/06/02,05:50,0.362,0.220,0.369,0.345,0.321,0.183,0.119,south,3.1,Yes
2017/06/02,06:00,0.360,0.222,0.372,0.345,0.319,0.184,0.121,east-northeast,3.5,Yes
2017/06/02,06:10,0.363,0.221,0.369,0.344,0.322,0.185,0.123,south,5.7,Yes
2017/06/02,06:20,0.361,0.223,0.371,0.341,0.319,0.187,0.123,south,6.2,Yes
2017/06/02,06:30,0.364,0.223,0.366,0.341,0.320,0.188,0.124,northeast,0.8,Yes
2017/06/02,06:40,0.358,0.224,0.365,0.336,0.316,0.188,0.123,west-northwest,6.3,Yes
2017/06/02,06:50,0.352,0.220,0.354,0.326,0.316,0.183,0.120,south-southwest,1.9,Yes
2017/06/02,07:00,0.356,0.227,0.365,0.338,0.320,0.188,0.124,north-northwest,4.8,Yes
2017/06/02,07:10,0.361,0.228,0.367,0.341,0.326,0.188,0.125,north-northwest,3.6,Yes
2017/06/02,07:20,0.360,0.227,0.373,0.343,0.323,0.188,0.125,north-northwest,2.8,Yes
2017/06/02,07:30,0.361,0.227,0.370,0.344,0.325,0.187,0.126,northwest,4.1,Yes
2017/06/02,07:40,0.357,0.224,0.371,0.342,0.321,0.186,0.124,southwest,0.6,Yes
2017/06/02,07:50,0.362,0.225,0.369,0.342,0.326,0.187,0.124,north,2.8,Yes
2017/06/02,08:00,0.357,0.223,0.370,0.342,0.322,0.186,0.125,north-northeast,3.0,Yes
2017/06/02,08:10,0.362,0.225,0.368,0.342,0.325,0.185,0.123,north-northeast,4.2,No
2017/06/02,08:20,0.356,0.223,0.370,0.340,0.320,0.185,0.123,north,4.5,No
2017/06/02,08:30,0.359,0.221,0.365,0.340,0.323,0.183,0.122,north,5.4,No
2017/06/02,08:40,0.356,0.222,0.367,0.338,0.319,0.181,0.120,north,6.2,No
2017/06/02,08:50,0.359,0.219,0.366,0.342,0.320,0.180,0.120,north-northwest,6.0,No
2017/06/02,09:00,0.355,0.219,0.367,0.337,0.320,0.181,0.119,north-northwest,5.3,No
2017/06/02,09:10,0.355,0.220,0.365,0.339,0.315,0.179,0.118,north-northwest,3.8,No
2017/06/02,09:20,0.358,0.216,0.364,0.339,0.317,0.178,0.118,north,4.3,No
2017/06/02,09:30,0.353,0.217,0.366,0.336,0.319,0.178,0.117,north,3.3,No
2017/06/02,09:40,0.352,0.217,0.362,0.334,0.316,0.179,0.116,north,4.7,No
2017/06/02,09:50,0.356,0.217,0.367,0.334,0.313,0.178,0.116,north-northeast,5.6,No
2017/06/02,10:00,0.353,0.216,0.367,0.335,0.314,0.177,0.116,north-northeast,6.2,No
2017/06/02,10:10,0.352,0.218,0.362,0.334,-,0.178,0.116,north-northeast,6.2,No
2017/06/02,10:20,0.356,0.216,0.364,0.339,-,0.179,0.115,north-northeast,9.5,No
2017/06/02,10:30,0.356,0.216,0.367,0.338,-,0.177,0.116,north-northeast,9.4,No
2017/06/02,10:40,0.352,0.218,0.365,0.337,-,0.177,0.115,northeast,8.6,No
2017/06/02,10:50,0.357,0.215,0.360,0.336,-,0.177,0.115,northeast,8.7,No
2017/06/02,11:00,0.356,0.215,0.364,0.342,-,0.178,0.116,northeast,9.3,No
2017/06/02,11:10,0.353,0.215,0.366,0.340,0.312,0.177,0.116,north-northeast,9.1,No
2017/06/02,11:20,0.355,0.216,0.364,0.337,0.318,0.176,0.115,northeast,7.4,No
2017/06/02,11:30,0.356,0.217,0.365,0.338,0.316,0.179,0.115,north-northwest,2.8,Yes
2017/06/02,11:40,0.356,0.216,0.366,0.340,0.320,0.178,-,northwest,4.8,No
2017/06/02,11:50,0.359,0.217,0.366,0.340,0.316,0.179,-,northwest,9.1,No
2017/06/02,12:00,0.355,0.218,0.370,0.344,0.318,0.179,-,west-northwest,10.4,No
2017/06/02,12:10,0.358,0.217,0.366,0.342,0.319,0.179,-,northwest,11.2,No
2017/06/02,12:20,0.358,0.217,0.368,0.340,0.317,0.179,-,west-northwest,11.6,No
2017/06/02,12:30,0.358,0.217,0.367,0.343,0.319,0.179,0.115,northwest,8.9,No
2017/06/02,12:40,0.361,0.217,0.369,0.339,0.319,0.180,0.116,west,9.8,Yes
2017/06/02,12:50,0.359,0.220,0.372,0.344,0.321,0.182,0.118,west-northwest,3.8,Yes
2017/06/02,13:00,0.364,0.220,0.369,0.344,0.323,0.183,0.120,northwest,6.5,Yes
2017/06/02,13:10,0.363,0.224,0.375,0.348,0.324,0.186,0.122,west-northwest,3.6,Yes
2017/06/02,13:20,0.371,0.227,0.376,0.348,0.328,0.189,0.125,north,3.0,Yes
2017/06/02,13:30,0.369,0.230,0.380,0.351,0.331,0.191,0.127,north-northeast,2.9,Yes
2017/06/02,13:40,0.372,0.229,0.380,0.349,0.328,0.191,0.128,north-northeast,5.4,No
2017/06/02,13:50,0.368,0.228,0.377,0.350,0.329,0.191,0.127,north-northwest,4.8,No
2017/06/02,14:00,0.370,0.226,0.377,-,0.325,0.189,0.126,north-northwest,5.9,No
2017/06/02,14:10,0.366,0.224,0.375,-,0.325,0.187,0.123,northwest,6.2,No
2017/06/02,14:20,0.367,0.225,0.375,-,0.323,0.186,0.123,northwest,6.3,No
2017/06/02,14:30,0.363,0.223,0.372,-,0.323,0.185,0.121,west-northwest,7.0,Yes
2017/06/02,14:40,0.365,0.224,0.372,-,0.321,0.184,0.121,west-northwest,7.3,No
2017/06/02,14:50,0.361,0.222,0.370,0.344,0.322,0.183,0.120,northwest,7.4,No
2017/06/02,15:00,0.363,0.220,0.374,0.342,0.321,0.180,0.120,north-northwest,10.4,No
2017/06/02,15:10,0.362,0.220,0.368,0.345,0.319,0.179,0.119,north-northwest,7.3,No
2017/06/02,15:20,0.362,0.219,0.371,0.342,0.320,-,0.119,north-northwest,5.6,No
2017/06/02,15:30,0.361,0.218,0.370,0.342,0.317,-,0.118,northwest,6.4,No
2017/06/02,15:40,0.357,0.219,0.366,0.341,0.315,-,0.116,northwest,12.9,No
2017/06/02,15:50,0.361,0.218,0.366,0.341,0.318,-,0.118,north-northwest,11.7,No
2017/06/02,16:00,0.360,0.218,0.369,0.341,0.319,-,0.117,north-northwest,11.8,No
2017/06/02,16:10,0.358,0.218,0.369,0.339,0.316,0.177,0.117,northwest,9.1,No
2017/06/02,16:20,0.363,0.218,0.370,0.341,0.315,0.179,0.117,north-northwest,11.8,No
2017/06/02,16:30,0.360,0.219,0.370,0.341,0.317,0.180,0.117,northwest,10.4,No
2017/06/02,16:40,0.360,0.219,0.372,0.342,0.319,0.182,0.117,northwest,10.1,No
2017/06/02,16:50,0.364,0.219,0.371,0.344,0.317,0.181,0.117,north-northwest,8.0,No
2017/06/02,17:00,0.360,0.218,0.371,0.341,0.319,0.180,0.117,north-northwest,8.9,No
2017/06/02,17:10,0.363,0.220,0.371,0.343,0.320,0.181,0.117,north-northwest,7.3,No
2017/06/02,17:20,0.361,0.218,0.372,0.341,0.317,0.180,0.117,northwest,2.8,No
2017/06/02,17:30,0.362,0.220,0.372,0.344,0.320,0.180,0.117,west-northwest,6.5,No
2017/06/02,17:40,0.362,0.219,0.369,0.342,0.319,0.180,0.117,northwest,4.6,No
2017/06/02,17:50,0.363,0.220,0.371,0.344,0.317,0.180,0.116,north-northwest,8.6,No
2017/06/02,18:00,0.362,0.219,0.369,0.341,0.319,0.182,0.117,northwest,6.9,No
2017/06/02,18:10,0.361,0.219,0.374,0.344,0.319,0.181,0.117,northwest,4.3,No
2017/06/02,18:20,0.364,0.219,0.370,0.341,0.319,0.181,0.117,west-northwest,5.0,No
2017/06/02,18:30,0.361,0.220,0.373,0.345,0.321,0.181,0.117,west,5.0,No
2017/06/02,18:40,0.364,0.219,0.370,0.341,0.319,0.181,0.116,northwest,3.3,No
2017/06/02,18:50,0.361,0.220,0.372,0.345,0.322,0.181,0.117,west-northwest,3.6,No
2017/06/02,19:00,0.364,0.219,0.370,0.342,0.319,0.181,0.117,northwest,6.7,No
2017/06/02,19:10,0.363,0.220,0.372,0.345,0.322,0.182,0.117,northwest,7.5,No
2017/06/02,19:20,0.364,0.220,0.372,0.342,0.319,0.182,0.117,north-northwest,6.8,No
2017/06/02,19:30,0.362,0.219,0.373,0.345,0.322,0.182,0.117,northwest,7.0,No
2017/06/02,19:40,0.362,0.220,0.372,0.342,0.319,0.180,0.117,northwest,7.4,No
2017/06/02,19:50,0.362,0.218,0.372,0.344,0.320,0.182,0.117,northwest,5.4,No
2017/06/02,20:00,0.363,0.220,0.375,0.343,0.320,0.181,0.117,northwest,4.4,No
2017/06/02,20:10,0.363,0.220,0.371,0.345,0.320,0.182,0.117,northwest,2.8,No
2017/06/02,20:20,0.363,0.219,0.374,0.344,0.320,0.181,0.117,west,3.8,No
2017/06/02,20:30,0.362,0.220,0.370,0.344,0.319,0.180,0.117,west,4.7,No
2017/06/02,20:40,0.365,0.219,0.373,0.344,0.322,0.182,0.117,west,5.1,No
2017/06/02,20:50,0.363,0.219,0.371,0.343,0.318,0.181,0.118,west-northwest,3.6,No
2017/06/02,21:00,0.364,0.220,0.374,0.346,0.321,0.181,0.117,northwest,7.0,No
2017/06/02,21:10,0.362,0.219,0.372,0.344,0.319,0.182,0.118,northwest,4.6,No
2017/06/02,21:20,0.365,0.219,0.373,0.344,0.320,0.182,0.117,northwest,2.1,No
2017/06/02,21:30,0.363,0.219,0.372,0.342,0.319,0.183,0.117,north-northwest,3.6,No
2017/06/02,21:40,0.365,0.221,0.372,0.346,0.321,0.180,0.117,northwest,1.1,No
2017/06/02,21:50,0.361,0.220,0.372,0.343,0.319,0.181,0.117,northwest,2.6,No
2017/06/02,22:00,0.364,0.219,0.372,0.346,0.320,0.182,0.117,northwest,4.4,No
2017/06/02,22:10,0.362,0.220,0.372,0.343,0.319,0.181,0.118,west-northwest,3.0,No
2017/06/02,22:20,0.364,0.219,0.373,0.344,0.319,0.182,0.117,west-northwest,3.3,No
2017/06/02,22:30,0.362,0.220,0.372,0.345,0.319,0.181,0.117,north-northwest,4.6,No
2017/06/02,22:40,0.364,0.219,0.372,0.343,0.318,0.181,0.117,northwest,3.9,No
2017/06/02,22:50,0.363,0.218,0.374,0.345,0.322,0.182,0.117,west-northwest,5.2,No
2017/06/02,23:00,0.364,0.220,0.372,0.343,0.319,0.183,0.117,north-northwest,1.9,No
2017/06/02,23:10,0.364,0.219,0.372,0.347,0.320,0.182,0.117,northwest,3.3,No
2017/06/02,23:20,0.362,0.220,0.373,0.344,0.318,0.182,0.118,northwest,3.9,No
2017/06/02,23:30,0.364,0.221,0.372,0.345,0.319,0.181,0.117,northwest,3.3,No
2017/06/02,23:40,0.362,0.220,0.373,0.343,0.319,0.182,0.116,west,4.5,No
2017/06/02,23:50,0.365,0.220,0.372,0.344,0.320,0.182,0.116,west-southwest,2.8,No
